QPF
0.01 0.01 0.02 0.02 0.01 0.01 0.02 0.04 0.02 0.03 0.03 0.03 0.02 0.03 0.05 0.05 0.04 0.02 0.02 0.01 0.01 0.01 0.02 0.01 0.01 0.01 0.02 0.02 0.02 0.03 0.02 0.02 0.02 0.01 0.01 0.01 0.00 0.00 0.00 0.00 0.01 0.01 0.01 0.01
0.01 0.02 0.01 0.01 0.01 0.01 0.02 0.03 0.02 0.02 0.04 0.05 0.04 0.03 0.05 0.04 0.04 0.02 0.02 0.01 0.01 0.01 0.01 0.01 0.00 0.01 0.01 0.02 0.01 0.02 0.02 0.01 0.02 0.01 0.01 0.00 0.00 0.00 0.00 0.00 0.00 0.00 0.00 0.00
0.01 0.01 0.01 0.02 0.02 0.03 0.03 0.03 0.02 0.02 0.03 0.04 0.04 0.06 0.05 0.03 0.03 0.03 0.01 0.01 0.01 0.00 0.00 0.00 0.00 0.00 0.01 0.01 0.01 0.01 0.02 0.01 0.00 0.00 0.01 0.00 0.00 0.00 0.00 0.00 0.00 0.00 0.00 0.00
0.01 0.01 0.02 0.03 0.03 0.03 0.03 0.02 0.02 0.02 0.03 0.04 0.03 0.06 0.05 0.03 0.02 0.02 0.01 0.01 0.00 0.00 0.00 0.00 0.00 0.00 0.00 0.01 0.01 0.01 0.02 0.01 0.00 0.00 0.01 0.01 0.00 0.00 0.00 0.00 0.00 0.00 0.00 0.00
0.01 0.01 0.01 0.03 0.03 0.03 0.03 0.03 0.03 0.03 0.03 0.02 0.02 0.04 0.04 0.02 0.01 0.01 0.00 0.00 0.00 0.00 0.00 0.00 0.00 0.01 0.00 0.00 0.00 0.00 0.00 0.00 0.00 0.01 0.01 0.01 0.01 0.00 0.00 0.00 0.00 0.00 0.00 0.00
0.00 0.00 0.01 0.01 0.02 0.03 0.02 0.03 0.03 0.03 0.02 0.02 0.02 0.02 0.02 0.01 0.01 0.00 0.00 0.00 0.00 0.00 0.00 0.00 0.01 0.01 0.00 0.00 0.00 0.00 0.00 0.00 0.00 0.00 0.00 0.00 0.00 0.01 0.00 0.00 0.00 0.00 0.00 0.00
0.01 0.00 0.00 0.01 0.01 0.02 0.02 0.03 0.03 0.03 0.02 0.02 0.01 0.02 0.01 0.01 0.00 0.00 0.00 0.00 0.00 0.00 0.00 0.00 0.00 0.00 0.00 0.00 0.00 0.00 0.00 0.00 0.00 0.00 0.00 0.00 0.00 0.00 0.00 0.00 0.00 0.00 0.00 0.00
0.01 0.01 0.00 0.00 0.01 0.01 0.01 0.02 0.03 0.03 0.03 0.02 0.01 0.01 0.01 0.00 0.00 0.00 0.00 0.00 0.00 0.00 0.00 0.00 0.00 0.00 0.00 0.00 0.00 0.00 0.00 0.00 0.00 0.00 0.00 0.00 0.00 0.00 0.00 0.00 0.00 0.00 0.00 0.00
0.01 0.01 0.00 0.00 0.01 0.01 0.02 0.02 0.02 0.03 0.03 0.02 0.01 0.01 0.01 0.00 0.00 0.00 0.00 0.00 0.00 0.00 0.00 0.00 0.01 0.01 0.00 0.00 0.00 0.00 0.00 0.00 0.00 0.00 0.00 0.00 0.00 0.00 0.00 0.00 0.00 0.00 0.00 0.00
0.00 0.01 0.00 0.00 0.01 0.01 0.01 0.02 0.02 0.04 0.04 0.03 0.02 0.02 0.02 0.00 0.00 0.00 0.00 0.00 0.00 0.00 0.00 0.00 0.01 0.01 0.00 0.00 0.00 0.00 0.00 0.00 0.00 0.00 0.00 0.00 0.01 0.01 0.00 0.00 0.00 0.00 0.00 0.00
0.00 0.00 0.00 0.01 0.01 0.02 0.01 0.01 0.01 0.02 0.02 0.03 0.02 0.02 0.01 0.01 0.00 0.00 0.00 0.00 0.00 0.00 0.00 0.01 0.01 0.01 0.00 0.00 0.00 0.00 0.00 0.00 0.00 0.00 0.00 0.00 0.00 0.00 0.00 0.01 0.00 0.00 0.00 0.00
0.00 0.00 0.00 0.00 0.00 0.00 0.01 0.01 0.01 0.02 0.03 0.02 0.02 0.03 0.02 0.02 0.01 0.00 0.00 0.00 0.01 0.00 0.00 0.00 0.01 0.01 0.00 0.00 0.00 0.00 0.00 0.00 0.00 0.00 0.00 0.00 0.00 0.00 0.00 0.01 0.00 0.00 0.00 0.00
0.00 0.00 0.01 0.01 0.01 0.01 0.01 0.01 0.01 0.02 0.02 0.02 0.04 0.06 0.05 0.05 0.02 0.01 0.01 0.01 0.01 0.00 0.00 0.00 0.00 0.00 0.00 0.00 0.01 0.01 0.00 0.00 0.00 0.00 0.00 0.00 0.00 0.00 0.00 0.00 0.00 0.00 0.00 0.00
0.01 0.01 0.00 0.01 0.00 0.01 0.01 0.00 0.01 0.02 0.02 0.01 0.03 0.05 0.06 0.06 0.04 0.03 0.02 0.02 0.02 0.01 0.00 0.00 0.00 0.00 0.00 0.01 0.01 0.00 0.00 0.00 0.00 0.00 0.00 0.00 0.00 0.00 0.00 0.00 0.00 0.00 0.00 0.00
0.02 0.01 0.01 0.00 0.00 0.00 0.00 0.00 0.01 0.01 0.02 0.01 0.02 0.04 0.05 0.06 0.04 0.02 0.02 0.01 0.01 0.00 0.00 0.00 0.00 0.00 0.00 0.00 0.00 0.01 0.01 0.00 0.00 0.00 0.00 0.00 0.00 0.00 0.00 0.00 0.00 0.00 0.00 0.00
0.01 0.01 0.01 0.01 0.00 0.00 0.00 0.00 0.00 0.01 0.01 0.01 0.01 0.02 0.02 0.04 0.03 0.02 0.02 0.01 0.01 0.00 0.00 0.01 0.00 0.00 0.00 0.00 0.01 0.00 0.00 0.00 0.00 0.00 0.00 0.00 0.00 0.00 0.00 0.00 0.00 0.00 0.00 0.00
0.01 0.01 0.01 0.01 0.00 0.00 0.00 0.00 0.00 0.00 0.00 0.00 0.00 0.01 0.01 0.01 0.03 0.03 0.03 0.03 0.01 0.01 0.01 0.01 0.01 0.01 0.00 0.00 0.00 0.00 0.00 0.00 0.00 0.00 0.00 0.00 0.00 0.00 0.00 0.00 0.00 0.00 0.00 0.00
0.01 0.01 0.01 0.01 0.01 0.01 0.00 0.00 0.00 0.00 0.00 0.00 0.00 0.00 0.01 0.01 0.02 0.02 0.02 0.02 0.01 0.01 0.01 0.01 0.01 0.01 0.01 0.01 0.00 0.00 0.00 0.00 0.00 0.00 0.00 0.00 0.00 0.00 0.00 0.00 0.00 0.00 0.00 0.00
0.01 0.01 0.02 0.01 0.01 0.00 0.00 0.00 0.00 0.00 0.00 0.00 0.00 0.00 0.00 0.00 0.00 0.01 0.01 0.01 0.01 0.01 0.01 0.01 0.01 0.00 0.00 0.01 0.01 0.01 0.00 0.00 0.00 0.00 0.00 0.01 0.01 0.00 0.00 0.00 0.01 0.00 0.00 0.01
0.01 0.01 0.02 0.02 0.01 0.01 0.00 0.00 0.00 0.00 0.00 0.00 0.00 0.00 0.01 0.01 0.00 0.00 0.00 0.01 0.01 0.01 0.01 0.01 0.01 0.00 0.00 0.01 0.01 0.00 0.00 0.00 0.00 0.00 0.00 0.00 0.01 0.01 0.01 0.01 0.01 0.01 0.00 0.00
0.01 0.01 0.01 0.01 0.01 0.01 0.00 0.00 0.00 0.00 0.00 0.00 0.00 0.00 0.01 0.02 0.01 0.00 0.00 0.01 0.01 0.01 0.01 0.01 0.01 0.01 0.01 0.01 0.01 0.01 0.00 0.00 0.00 0.00 0.01 0.01 0.01 0.01 0.01 0.01 0.01 0.01 0.01 0.01
0.01 0.02 0.02 0.01 0.01 0.00 0.00 0.00 0.00 0.00 0.00 0.00 0.00 0.00 0.00 0.01 0.01 0.01 0.01 0.01 0.01 0.01 0.01 0.01 0.01 0.02 0.01 0.01 0.01 0.01 0.01 0.01 0.01 0.01 0.01 0.00 0.01 0.01 0.01 0.01 0.01 0.01 0.01 0.01
0.01 0.01 0.02 0.01 0.01 0.00 0.00 0.00 0.00 0.00 0.00 0.00 0.00 0.00 0.00 0.00 0.00 0.01 0.01 0.00 0.00 0.01 0.02 0.02 0.03 0.03 0.03 0.02 0.02 0.01 0.02 0.02 0.01 0.01 0.01 0.00 0.00 0.00 0.00 0.00 0.01 0.01 0.01 0.01
0.01 0.01 0.01 0.01 0.01 0.00 0.00 0.00 0.00 0.00 0.00 0.00 0.00 0.00 0.00 0.00 0.01 0.01 0.01 0.01 0.01 0.01 0.02 0.02 0.03 0.03 0.03 0.03 0.03 0.03 0.02 0.02 0.01 0.00 0.00 0.00 0.00 0.00 0.00 0.01 0.01 0.01 0.01 0.01
0.01 0.02 0.02 0.01 0.00 0.00 0.00 0.00 0.00 0.00 0.00 0.00 0.00 0.01 0.01 0.01 0.02 0.01 0.01 0.02 0.02 0.02 0.03 0.04 0.04 0.03 0.02 0.03 0.04 0.04 0.04 0.03 0.01 0.01 0.00 0.00 0.00 0.01 0.01 0.01 0.01 0.01 0.01 0.01
0.01 0.01 0.01 0.00 0.00 0.00 0.00 0.00 0.00 0.00 0.00 0.00 0.00 0.00 0.00 0.00 0.01 0.01 0.01 0.02 0.02 0.02 0.02 0.03 0.03 0.04 0.03 0.03 0.04 0.06 0.06 0.06 0.05 0.03 0.01 0.00 0.00 0.00 0.00 0.00 0.00 0.00 0.00 0.00
MSLP
1017.37 1017.74 1018.01 1018.22 1018.41 1018.68 1019.06 1019.61 1020.31 1021.11 1021.92 1022.63 1023.17 1023.45 1023.46 1023.21 1022.78 1022.25 1021.75 1021.35 1021.11 1021.06 1021.16 1021.36 1021.60 1021.81 1021.94 1021.98 1021.93 1021.82 1021.70 1021.59 1021.53 1021.53 1021.56 1021.61 1021.63 1021.59 1021.49 1021.31 1021.08 1020.81 1020.55 1020.32
1018.05 1018.43 1018.70 1018.91 1019.12 1019.40 1019.83 1020.43 1021.18 1022.03 1022.86 1023.57 1024.06 1024.26 1024.15 1023.75 1023.17 1022.50 1021.88 1021.40 1021.12 1021.06 1021.20 1021.46 1021.76 1022.02 1022.19 1022.24 1022.18 1022.04 1021.87 1021.72 1021.63 1021.62 1021.66 1021.73 1021.80 1021.82 1021.78 1021.66 1021.47 1021.24 1021.00 1020.78
1018.74 1019.15 1019.43 1019.66 1019.89 1020.21 1020.68 1021.33 1022.14 1023.02 1023.88 1024.58 1025.03 1025.15 1024.92 1024.38 1023.65 1022.84 1022.09 1021.51 1021.18 1021.10 1021.24 1021.53 1021.88 1022.18 1022.38 1022.45 1022.38 1022.21 1022.00 1021.82 1021.70 1021.66 1021.70 1021.79 1021.90 1021.98 1022.00 1021.94 1021.82 1021.64 1021.44 1021.25
1019.44 1019.85 1020.14 1020.37 1020.62 1020.96 1021.47 1022.16 1023.01 1023.93 1024.80 1025.50 1025.91 1025.96 1025.64 1024.99 1024.13 1023.20 1022.34 1021.68 1021.27 1021.16 1021.30 1021.60 1021.97 1022.31 1022.54 1022.61 1022.54 1022.36 1022.13 1021.91 1021.75 1021.69 1021.72 1021.81 1021.95 1022.07 1022.14 1022.15 1022.09 1021.97 1021.83 1021.68
1020.07 1020.47 1020.74 1020.96 1021.19 1021.53 1022.04 1022.75 1023.62 1024.56 1025.44 1026.14 1026.54 1026.55 1026.19 1025.47 1024.54 1023.53 1022.60 1021.86 1021.41 1021.26 1021.38 1021.69 1022.07 1022.43 1022.68 1022.78 1022.72 1022.53 1022.28 1022.04 1021.85 1021.75 1021.76 1021.85 1021.98 1022.12 1022.23 1022.29 1022.28 1022.22 1022.13 1022.02
1020.61 1020.96 1021.18 1021.33 1021.52 1021.82 1022.30 1022.99 1023.85 1024.78 1025.67 1026.37 1026.78 1026.80 1026.44 1025.72 1024.78 1023.76 1022.80 1022.05 1021.57 1021.40 1021.51 1021.81 1022.20 1022.58 1022.85 1022.97 1022.93 1022.75 1022.50 1022.24 1022.03 1021.90 1021.87 1021.93 1022.05 1022.18 1022.30 1022.38 1022.41 1022.39 1022.34 1022.28
1021.01 1021.27 1021.40 1021.46 1021.56 1021.78 1022.19 1022.82 1023.63 1024.54 1025.43 1026.15 1026.58 1026.66 1026.35 1025.70 1024.83 1023.86 1022.95 1022.22 1021.76 1021.59 1021.70 1022.01 1022.40 1022.79 1023.08 1023.22 1023.21 1023.05 1022.81 1022.54 1022.31 1022.15 1022.09 1022.10 1022.19 1022.30 1022.40 1022.48 1022.52 1022.53 1022.50 1022.47
1021.22 1021.38 1021.39 1021.35 1021.33 1021.44 1021.75 1022.29 1023.04 1023.90 1024.77 1025.50 1025.99 1026.15 1025.96 1025.44 1024.69 1023.85 1023.05 1022.41 1022.00 1021.87 1022.00 1022.31 1022.70 1023.10 1023.40 1023.57 1023.58 1023.45 1023.22 1022.96 1022.73 1022.54 1022.44 1022.42 1022.45 1022.52 1022.59 1022.65 1022.68 1022.68 1022.67 1022.65
1021.24 1021.29 1021.20 1021.04 1020.91 1020.90 1021.10 1021.54 1022.20 1023.00 1023.83 1024.58 1025.13 1025.40 1025.35 1025.01 1024.45 1023.79 1023.15 1022.64 1022.33 1022.26 1022.41 1022.72 1023.12 1023.51 1023.82 1024.00 1024.04 1023.94 1023.75 1023.51 1023.28 1023.09 1022.96 1022.89 1022.88 1022.90 1022.93 1022.95 1022.96 1022.95 1022.94 1022.92
1021.08 1021.05 1020.87 1020.62 1020.40 1020.30 1020.40 1020.73 1021.30 1022.02 1022.82 1023.58 1024.19 1024.57 1024.68 1024.53 1024.19 1023.75 1023.30 1022.95 1022.76 1022.76 1022.94 1023.26 1023.65 1024.03 1024.33 1024.52 1024.58 1024.52 1024.36 1024.16 1023.95 1023.77 1023.64 1023.55 1023.51 1023.48 1023.47 1023.46 1023.43 1023.40 1023.37 1023.35
1020.78 1020.70 1020.49 1020.20 1019.93 1019.77 1019.80 1020.05 1020.53 1021.19 1021.94 1022.69 1023.35 1023.83 1024.10 1024.15 1024.03 1023.81 1023.57 1023.38 1023.32 1023.39 1023.60 1023.92 1024.28 1024.63 1024.91 1025.10 1025.18 1025.15 1025.04 1024.89 1024.73 1024.59 1024.47 1024.38 1024.32 1024.27 1024.23 1024.19 1024.14 1024.09 1024.04 1024.00
1020.39 1020.32 1020.13 1019.87 1019.61 1019.45 1019.44 1019.64 1020.05 1020.64 1021.34 1022.07 1022.74 1023.30 1023.70 1023.93 1024.01 1023.99 1023.95 1023.92 1023.97 1024.11 1024.34 1024.64 1024.96 1025.27 1025.52 1025.70 1025.79 1025.80 1025.75 1025.67 1025.57 1025.48 1025.40 1025.34 1025.29 1025.24 1025.19 1025.12 1025.06 1024.99 1024.92 1024.87
1020.00 1019.99 1019.87 1019.69 1019.50 1019.38 1019.38 1019.56 1019.91 1020.43 1021.07 1021.75 1022.43 1023.03 1023.52 1023.89 1024.13 1024.30 1024.42 1024.53 1024.67 1024.86 1025.10 1025.37 1025.65 1025.91 1026.13 1026.29 1026.39 1026.44 1026.45 1026.44 1026.42 1026.41 1026.39 1026.38 1026.36 1026.32 1026.27 1026.21 1026.13 1026.05 1025.97 1025.90
1019.67 1019.76 1019.76 1019.70 1019.62 1019.57 1019.61 1019.78 1020.09 1020.54 1021.10 1021.72 1022.36 1022.98 1023.52 1023.99 1024.36 1024.67 1024.92 1025.15 1025.37 1025.59 1025.83 1026.07 1026.30 1026.51 1026.70 1026.84 1026.96 1027.05 1027.12 1027.19 1027.26 1027.32 1027.38 1027.43 1027.45 1027.44 1027.40 1027.34 1027.26 1027.17 1027.08 1027.00
1019.47 1019.67 1019.81 1019.88 1019.92 1019.96 1020.05 1020.22 1020.49 1020.87 1021.34 1021.88 1022.46 1023.05 1023.61 1024.14 1024.60 1025.02 1025.38 1025.70 1025.98 1026.24 1026.48 1026.70 1026.89 1027.06 1027.21 1027.35 1027.48 1027.61 1027.75 1027.90 1028.05 1028.19 1028.32 1028.42 1028.49 1028.51 1028.49 1028.43 1028.34 1028.25 1028.15 1028.06
1019.42 1019.73 1019.99 1020.19 1020.34 1020.46 1020.59 1020.75 1020.96 1021.26 1021.63 1022.07 1022.58 1023.13 1023.69 1024.24 1024.78 1025.28 1025.73 1026.13 1026.48 1026.78 1027.02 1027.23 1027.40 1027.55 1027.69 1027.83 1027.98 1028.15 1028.34 1028.56 1028.78 1028.99 1029.18 1029.33 1029.42 1029.47 1029.45 1029.39 1029.30 1029.20 1029.09 1028.99
1019.51 1019.91 1020.26 1020.55 1020.77 1020.94 1021.08 1021.21 1021.37 1021.57 1021.84 1022.19 1022.61 1023.11 1023.65 1024.23 1024.82 1025.40 1025.93 1026.42 1026.83 1027.18 1027.46 1027.68 1027.85 1028.00 1028.14 1028.29 1028.46 1028.67 1028.91 1029.18 1029.45 1029.71 1029.94 1030.11 1030.22 1030.27 1030.25 1030.19 1030.09 1029.98 1029.86 1029.75
1019.70 1020.14 1020.53 1020.86 1021.12 1021.30 1021.42 1021.50 1021.59 1021.70 1021.87 1022.12 1022.48 1022.92 1023.46 1024.07 1024.71 1025.36 1025.99 1026.56 1027.06 1027.48 1027.81 1028.07 1028.27 1028.43 1028.59 1028.76 1028.96 1029.20 1029.48 1029.77 1030.07 1030.35 1030.59 1030.77 1030.88 1030.92 1030.89 1030.81 1030.70 1030.57 1030.45 1030.33
1019.91 1020.35 1020.74 1021.06 1021.30 1021.46 1021.53 1021.55 1021.56 1021.59 1021.67 1021.86 1022.16 1022.58 1023.13 1023.77 1024.48 1025.21 1025.93 1026.60 1027.20 1027.70 1028.11 1028.43 1028.68 1028.88 1029.07 1029.27 1029.50 1029.75 1030.04 1030.35 1030.65 1030.93 1031.16 1031.33 1031.42 1031.44 1031.39 1031.29 1031.17 1031.04 1030.91 1030.79
1020.08 1020.46 1020.81 1021.09 1021.28 1021.38 1021.40 1021.36 1021.30 1021.26 1021.29 1021.43 1021.71 1022.14 1022.70 1023.40 1024.18 1025.00 1025.82 1026.60 1027.30 1027.90 1028.39 1028.78 1029.10 1029.35 1029.58 1029.81 1030.05 1030.32 1030.61 1030.91 1031.20 1031.46 1031.66 1031.80 1031.87 1031.87 1031.80 1031.70 1031.57 1031.44 1031.31 1031.20
1020.12 1020.44 1020.71 1020.93 1021.05 1021.10 1021.06 1020.97 1020.86 1020.80 1020.81 1020.94 1021.22 1021.67 1022.28 1023.04 1023.89 1024.81 1025.72 1026.60 1027.40 1028.10 1028.68 1029.15 1029.52 1029.83 1030.10 1030.35 1030.61 1030.88 1031.16 1031.44 1031.70 1031.93 1032.11 1032.22 1032.26 1032.24 1032.17 1032.07 1031.95 1031.83 1031.72 1031.62
1020.01 1020.25 1020.45 1020.59 1020.66 1020.65 1020.58 1020.47 1020.35 1020.29 1020.31 1020.47 1020.79 1021.28 1021.94 1022.76 1023.69 1024.68 1025.68 1026.64 1027.53 1028.30 1028.96 1029.50 1029.94 1030.29 1030.60 1030.87 1031.13 1031.39 1031.65 1031.91 1032.14 1032.34 1032.49 1032.58 1032.62 1032.60 1032.53 1032.44 1032.34 1032.24 1032.15 1032.07
1019.77 1019.93 1020.05 1020.13 1020.16 1020.13 1020.05 1019.95 1019.87 1019.84 1019.91 1020.12 1020.49 1021.03 1021.75 1022.62 1023.60 1024.64 1025.70 1026.72 1027.67 1028.51 1029.22 1029.82 1030.30 1030.70 1031.02 1031.31 1031.58 1031.83 1032.07 1032.30 1032.51 1032.69 1032.82 1032.90 1032.94 1032.93 1032.88 1032.82 1032.75 1032.67 1032.60 1032.54
1019.41 1019.51 1019.58 1019.63 1019.64 1019.62 1019.57 1019.52 1019.50 1019.54 1019.68 1019.95 1020.38 1020.98 1021.73 1022.63 1023.64 1024.70 1025.78 1026.83 1027.80 1028.68 1029.43 1030.06 1030.58 1031.00 1031.35 1031.65 1031.92 1032.16 1032.39 1032.61 1032.80 1032.96 1033.09 1033.18 1033.23 1033.24 1033.22 1033.19 1033.14 1033.09 1033.04 1032.98
1019.00 1019.05 1019.10 1019.14 1019.17 1019.19 1019.21 1019.24 1019.31 1019.43 1019.66 1020.00 1020.48 1021.11 1021.88 1022.78 1023.78 1024.83 1025.90 1026.94 1027.91 1028.79 1029.56 1030.21 1030.75 1031.20 1031.57 1031.88 1032.15 1032.39 1032.61 1032.82 1033.01 1033.17 1033.30 1033.40 1033.47 1033.51 1033.52 1033.51 1033.49 1033.45 1033.40 1033.33
1018.58 1018.61 1018.66 1018.73 1018.81 1018.90 1019.01 1019.14 1019.31 1019.53 1019.83 1020.23 1020.75 1021.39 1022.15 1023.02 1023.98 1024.99 1026.02 1027.02 1027.97 1028.84 1029.60 1030.26 1030.82 1031.29 1031.67 1032.00 1032.28 1032.53 1032.76 1032.97 1033.16 1033.32 1033.47 1033.58 1033.67 1033.73 1033.76 1033.76 1033.74 1033.70 1033.64 1033.54
Thickness
5723 5718 5712 5715 5720 5722 5720 5716 5714 5717 5725 5722 5720 5722 5727 5731 5730 5731 5733 5734 5735 5737 5740 5741 5740 5739 5738 5737 5737 5735 5734 5732 5730 5729 5727 5726 5724 5724 5724 5723 5723 5722 5723 5723
5714 5709 5716 5720 5719 5717 5716 5712 5712 5716 5721 5719 5718 5721 5728 5730 5730 5733 5734 5735 5736 5737 5738 5738 5738 5737 5737 5736 5735 5735 5733 5732 5729 5727 5727 5725 5723 5723 5722 5720 5720 5720 5720 5719
5707 5712 5718 5715 5713 5712 5712 5712 5712 5710 5714 5718 5715 5715 5723 5729 5731 5732 5734 5737 5739 5738 5738 5738 5737 5737 5735 5734 5734 5733 5733 5731 5728 5726 5724 5722 5720 5720 5720 5719 5718 5717 5717 5717
5708 5714 5713 5712 5712 5713 5706 5715 5713 5710 5707 5706 5710 5703 5719 5726 5726 5728 5731 5734 5737 5738 5739 5738 5737 5736 5735 5735 5735 5734 5732 5730 5728 5725 5722 5721 5718 5718 5718 5719 5717 5716 5715 5714
5704 5710 5710 5708 5711 5713 5709 5715 5713 5710 5708 5706 5710 5705 5717 5725 5721 5728 5732 5735 5737 5738 5739 5738 5737 5737 5737 5736 5733 5733 5731 5729 5726 5724 5721 5720 5719 5719 5718 5716 5715 5715 5714 5712
5709 5714 5714 5712 5715 5714 5713 5710 5708 5708 5707 5696 5706 5704 5709 5724 5726 5730 5735 5736 5737 5738 5738 5737 5738 5736 5735 5734 5731 5730 5728 5726 5724 5722 5721 5719 5718 5716 5714 5713 5713 5713 5712 5711
5702 5708 5713 5716 5707 5708 5709 5703 5693 5690 5691 5694 5708 5703 5712 5731 5735 5735 5736 5738 5739 5739 5737 5736 5734 5733 5732 5730 5729 5728 5726 5724 5723 5721 5721 5720 5718 5716 5714 5713 5712 5711 5711 5709
5696 5695 5709 5713 5711 5707 5708 5706 5693 5682 5685 5696 5704 5703 5721 5734 5737 5739 5739 5739 5738 5737 5736 5735 5734 5732 5731 5730 5728 5727 5726 5724 5723 5722 5721 5720 5718 5716 5715 5713 5712 5711 5710 5709
5701 5697 5711 5713 5716 5714 5705 5706 5711 5701 5696 5692 5702 5713 5725 5734 5734 5734 5735 5735 5734 5735 5734 5733 5733 5732 5731 5729 5728 5728 5726 5725 5723 5722 5720 5719 5717 5715 5713 5712 5711 5709 5708 5706
5711 5698 5706 5710 5713 5711 5713 5711 5704 5696 5685 5684 5695 5704 5712 5722 5727 5730 5731 5732 5733 5733 5733 5732 5731 5730 5730 5729 5729 5728 5727 5725 5723 5721 5719 5717 5715 5713 5711 5710 5708 5707 5706 5704
5711 5700 5700 5704 5703 5705 5704 5704 5704 5702 5700 5689 5685 5701 5724 5724 5728 5729 5731 5733 5733 5732 5731 5731 5729 5729 5729 5728 5727 5726 5725 5723 5721 5719 5718 5715 5713 5711 5709 5707 5706 5704 5702 5700
5708 5704 5698 5704 5712 5714 5711 5709 5706 5695 5694 5697 5694 5702 5729 5728 5730 5730 5731 5732 5732 5731 5731 5730 5728 5726 5726 5725 5725 5724 5724 5721 5719 5717 5715 5713 5711 5708 5707 5705 5703 5702 5700 5698
5704 5699 5690 5692 5698 5704 5704 5707 5708 5706 5701 5696 5691 5700 5726 5728 5728 5728 5728 5728 5728 5728 5728 5727 5725 5724 5723 5723 5722 5722 5721 5719 5717 5714 5712 5710 5709 5707 5705 5703 5702 5700 5698 5695
5703 5699 5694 5688 5696 5703 5700 5702 5704 5703 5697 5696 5699 5705 5716 5720 5721 5723 5724 5725 5725 5725 5725 5724 5722 5721 5721 5721 5720 5720 5719 5717 5714 5711 5709 5707 5706 5704 5702 5700 5698 5696 5694 5692
5700 5695 5698 5700 5703 5702 5702 5703 5703 5701 5704 5700 5705 5707 5713 5719 5720 5722 5723 5723 5721 5721 5721 5721 5719 5719 5718 5718 5717 5717 5715 5714 5712 5708 5706 5705 5704 5702 5699 5696 5694 5692 5689 5688
5695 5690 5692 5691 5697 5698 5696 5701 5702 5701 5704 5704 5705 5707 5720 5722 5722 5722 5721 5719 5718 5718 5718 5718 5718 5717 5716 5716 5715 5714 5712 5711 5709 5706 5703 5702 5700 5697 5694 5692 5690 5687 5685 5683
5689 5688 5683 5684 5692 5691 5690 5704 5704 5704 5707 5707 5703 5711 5718 5716 5716 5718 5719 5718 5718 5717 5716 5715 5716 5715 5715 5715 5714 5711 5709 5708 5705 5703 5700 5697 5695 5692 5689 5687 5685 5682 5679 5677
5685 5683 5682 5682 5683 5671 5701 5715 5712 5707 5710 5714 5714 5717 5717 5716 5717 5718 5720 5719 5718 5716 5715 5714 5714 5713 5714 5714 5712 5709 5707 5704 5702 5699 5696 5694 5691 5687 5685 5682 5679 5677 5676 5673
5685 5679 5676 5676 5673 5682 5699 5708 5708 5704 5705 5715 5715 5715 5716 5716 5714 5715 5718 5718 5717 5715 5714 5713 5713 5713 5712 5710 5708 5705 5703 5701 5697 5694 5692 5690 5687 5683 5680 5677 5675 5673 5670 5668
5677 5678 5673 5670 5666 5670 5695 5708 5712 5706 5699 5714 5715 5712 5712 5711 5706 5711 5715 5714 5713 5712 5711 5710 5709 5709 5706 5705 5703 5700 5698 5696 5693 5691 5689 5687 5683 5679 5676 5674 5671 5668 5665 5663
5668 5667 5666 5667 5667 5681 5699 5703 5703 5689 5699 5712 5713 5711 5710 5708 5711 5711 5711 5709 5708 5706 5705 5704 5703 5701 5700 5699 5697 5695 5693 5690 5689 5687 5684 5681 5678 5675 5672 5669 5666 5663 5660 5658
5670 5666 5665 5666 5663 5673 5694 5694 5695 5701 5710 5710 5710 5710 5708 5707 5707 5706 5704 5703 5701 5700 5698 5697 5696 5693 5693 5693 5691 5689 5686 5685 5683 5680 5677 5675 5673 5670 5666 5663 5660 5658 5655 5652
5668 5673 5674 5674 5677 5688 5691 5694 5698 5702 5703 5704 5704 5705 5704 5701 5700 5699 5698 5696 5695 5694 5692 5691 5689 5687 5686 5685 5684 5682 5680 5678 5676 5674 5670 5669 5667 5664 5661 5658 5654 5652 5649 5647
5665 5666 5667 5670 5678 5684 5686 5689 5692 5694 5696 5698 5699 5699 5698 5696 5695 5693 5692 5690 5688 5688 5686 5685 5683 5682 5680 5679 5677 5676 5674 5672 5671 5668 5666 5663 5660 5658 5655 5651 5649 5646 5644 5641
5659 5658 5660 5665 5674 5676 5679 5682 5685 5686 5689 5690 5692 5692 5692 5691 5689 5688 5686 5684 5683 5681 5680 5679 5677 5675 5674 5672 5671 5669 5668 5667 5665 5663 5659 5657 5654 5651 5648 5644 5641 5639 5637 5634
5654 5654 5655 5661 5671 5673 5677 5680 5681 5680 5681 5683 5684 5684 5685 5685 5683 5682 5680 5679 5677 5675 5674 5672 5671 5669 5668 5666 5664 5662 5661 5660 5659 5656 5653 5650 5646 5643 5640 5636 5632 5627 5625 5623